Temp
5 5 5 5 6 6 5 5 5 6 6 6 6 6 6 6 6 7 7 7 7 7 7 7 7 8 8 9 9 11 12 13 13 14 14 15 14 14 15 15 15 14 15
5 4 4 4 4 4 5 4 5 5 5 5 5 6 6 6 6 6 6 6 6 6 6 6 6 7 7 7 7 7 8 9 11 13 14 13 12 13 14 14 14 14 14
6 6 5 5 5 4 4 4 4 4 5 5 5 5 5 5 5 5 5 5 6 6 6 5 6 6 6 5 5 6 7 7 8 8 12 12 12 12 12 12 12 13 13
6 5 5 5 4 4 3 3 3 4 4 4 4 4 4 4 5 3 4 4 4 5 5 5 5 5 4 4 4 5 5 6 7 7 8 10 10 10 10 10 10 10 10
6 5 5 4 4 4 3 3 3 3 3 3 3 3 3 3 4 2 2 3 3 4 4 4 4 4 4 4 3 4 4 4 5 6 7 8 8 7 8 9 8 8 8
6 5 5 4 4 3 3 3 3 3 3 3 3 3 3 3 3 2 1 1 2 3 3 3 3 3 4 3 4 4 3 3 4 5 5 7 8 8 8 8 7 6 5
5 5 4 4 3 3 3 3 3 2 2 2 2 1 1 2 2 1 1 1 2 2 2 2 2 3 3 3 3 3 3 4 4 4 4 5 6 7 7 8 7 7 8
5 4 3 3 3 2 2 2 2 1 1 1 1 1 1 1 1 0 0 0 1 1 2 2 2 2 2 1 1 1 1 2 3 3 3 3 4 4 4 5 7 7 7
4 3 2 2 2 1 1 1 0 0 -0 -0 0 -0 -0 0 0 -0 -0 0 1 1 2 2 2 2 2 1 0 0 1 0 0 1 1 2 3 3 4 4 5 6 5
3 2 1 1 0 0 -0 -0 -1 -1 -1 -0 -1 -0 0 0 1 0 -0 0 1 1 2 2 2 2 1 0 0 0 -0 -0 -0 -0 0 0 1 2 3 4 4 5 6
1 0 -0 -0 -0 -0 -1 -1 -1 -1 -1 -0 0 1 1 1 1 0 -0 -0 0 -0 0 1 1 1 1 0 0 0 0 0 -0 -0 -0 -0 1 2 2 3 4 4 5
-0 -0 -0 -0 -0 -0 -1 -0 -0 -0 0 0 0 0 0 1 0 0 0 0 -0 -0 -0 0 0 0 -0 -0 0 0 0 -0 -0 -1 -0 0 1 1 2 2 2 3 3
-1 -0 -0 -1 -1 -1 -1 -1 -1 -1 -1 -1 -1 -1 -0 -1 -1 -1 -0 -0 -0 -0 -0 -0 -0 -0 0 -0 -0 -0 -0 -1 -1 -1 -1 -1 -1 -1 -1 0 1 2 2
-1 -1 -1 -1 -1 -1 -1 -1 -1 -2 -1 -2 -2 -1 -2 -2 -2 -2 -1 -2 -1 -1 -1 -1 -1 -0 -0 -0 -0 -1 -1 -1 -1 -1 -1 -1 -2 -2 -2 -0 0 1 1
-1 -1 -1 -1 -1 -1 -2 -2 -2 -2 -2 -3 -3 -3 -3 -3 -3 -2 -2 -2 -2 -2 -2 -2 -1 -1 -1 -1 -1 -1 -1 -1 -2 -1 -2 -2 -2 -2 -2 -1 -0 0 0
-2 -2 -1 -2 -2 -2 -2 -2 -2 -2 -3 -3 -3 -3 -3 -3 -3 -3 -3 -3 -2 -2 -2 -2 -2 -1 -1 -1 -1 -2 -2 -2 -2 -2 -3 -3 -2 -2 -2 -1 -1 -1 -0
-3 -2 -2 -3 -2 -2 -3 -2 -3 -2 -3 -3 -3 -3 -3 -3 -3 -3 -3 -3 -3 -2 -3 -2 -2 -2 -2 -2 -2 -2 -2 -2 -2 -3 -3 -3 -3 -2 -2 -2 -1 -1 -1
-3 -3 -3 -3 -3 -3 -3 -3 -3 -3 -3 -3 -3 -4 -4 -3 -3 -4 -4 -3 -3 -2 -2 -2 -2 -2 -3 -3 -3 -3 -3 -3 -3 -3 -3 -3 -3 -3 -2 -1 -1 -1 -1
-3 -3 -4 -4 -4 -3 -3 -4 -4 -4 -4 -4 -4 -4 -4 -4 -4 -4 -4 -4 -3 -3 -3 -3 -3 -3 -4 -4 -4 -4 -4 -4 -4 -4 -4 -4 -3 -3 -2 -2 -1 -1 -1
-4 -4 -4 -4 -4 -3 -4 -4 -5 -5 -4 -4 -5 -4 -5 -5 -5 -5 -5 -5 -4 -4 -4 -4 -5 -5 -5 -5 -5 -5 -5 -5 -5 -4 -4 -4 -4 -3 -3 -2 -2 -1 -1
-4 -4 -4 -4 -4 -4 -4 -5 -5 -5 -5 -5 -5 -5 -5 -5 -6 -6 -6 -6 -5 -5 -6 -6 -6 -6 -6 -6 -6 -6 -6 -5 -5 -5 -4 -4 -4 -4 -3 -3 -2 -2 -1
-4 -4 -4 -4 -4 -4 -4 -5 -5 -5 -5 -5 -6 -6 -5 -6 -6 -6 -6 -6 -6 -6 -7 -7 -7 -7 -7 -7 -7 -7 -7 -6 -5 -5 -5 -4 -4 -4 -3 -3 -2 -2 -2
-5 -5 -5 -5 -5 -5 -5 -5 -5 -6 -6 -6 -6 -6 -6 -6 -6 -6 -7 -7 -7 -7 -7 -7 -7 -7 -7 -7 -7 -7 -7 -6 -6 -6 -5 -4 -4 -4 -3 -3 -2 -2 -2
-5 -5 -5 -5 -6 -6 -6 -6 -6 -6 -6 -6 -6 -6 -6 -7 -7 -7 -7 -7 -8 -8 -8 -8 -8 -8 -8 -8 -7 -7 -7 -7 -6 -6 -6 -5 -4 -4 -4 -3 -2 -2 -2
-5 -5 -6 -7 -7 -7 -7 -7 -7 -7 -7 -7 -7 -7 -7 -7 -7 -7 -7 -7 -7 -8 -8 -8 -8 -8 -8 -7 -8 -8 -7 -7 -7 -6 -6 -5 -4 -4 -3 -3 -2 -2 -3
-6 -7 -7 -8 -8 -7 -7 -7 -7 -7 -8 -8 -8 -8 -8 -7 -7 -7 -7 -7 -7 -7 -7 -7 -7 -7 -7 -7 -7 -6 -7 -6 -6 -5 -5 -4 -4 -4 -3 -3 -3 -3 -3
Height
773 770 768 768 768 768 768 765 762 763 763 762 760 759 755 756 753 751 749 748 747 745 742 740 739 736 732 729 727 721 715 711 709 710 712 714 716 717 720 722 726 728 728
773 773 772 772 771 769 767 768 769 769 767 765 762 760 756 755 757 750 748 748 748 745 742 740 739 734 730 731 726 722 719 716 714 705 704 705 706 709 712 714 717 718 719
778 777 775 774 772 771 770 768 767 767 765 765 763 760 758 757 755 752 752 751 749 745 743 741 739 735 732 730 726 722 719 717 713 708 702 701 704 705 706 707 708 709 709
779 778 777 775 773 771 770 768 767 766 764 763 761 760 758 756 754 754 752 749 746 744 743 740 738 735 732 728 725 724 721 718 713 710 706 704 701 701 701 702 701 701 702
780 779 778 777 775 773 771 770 769 767 766 764 762 760 758 757 755 753 751 748 746 743 741 738 735 733 730 728 726 723 721 719 716 711 708 704 702 701 699 696 697 697 698
780 780 779 778 776 775 774 772 770 768 767 765 762 760 758 756 755 753 750 746 744 741 738 735 733 730 728 726 725 724 723 719 716 713 709 705 703 700 697 695 694 695 697
780 780 779 778 777 776 774 773 771 769 767 764 762 760 758 755 753 751 749 746 743 739 737 734 732 729 726 724 722 721 718 717 715 713 708 706 701 700 698 693 691 689 688
780 780 779 778 777 776 774 772 770 768 766 763 761 759 756 754 751 749 747 744 741 738 735 732 730 728 726 723 721 718 716 713 711 709 707 703 700 699 696 694 690 684 684
781 781 780 778 776 775 773 771 770 768 765 762 760 757 754 752 749 747 745 741 738 734 731 729 726 725 723 721 718 715 712 709 707 704 701 698 696 694 693 691 686 683 679
780 780 780 779 777 775 773 771 769 767 764 760 757 754 751 748 746 744 742 738 734 731 728 726 723 722 720 719 717 714 710 707 702 697 694 691 689 686 684 684 683 678 674
777 776 776 775 774 772 770 768 765 763 760 757 753 750 747 745 742 740 738 736 732 729 725 722 720 718 717 715 712 709 705 702 698 695 690 685 681 679 678 676 675 674 669
773 773 772 771 771 769 767 765 762 759 756 754 750 747 745 742 740 737 734 732 729 726 723 719 716 713 711 709 706 703 699 696 692 688 685 681 677 673 672 670 667 664 663
769 768 768 768 768 766 764 762 760 757 754 751 749 745 741 738 736 734 731 728 725 721 718 714 711 708 704 700 698 696 693 690 687 683 679 675 673 671 666 662 659 656 652
767 767 767 766 765 763 761 759 757 755 752 749 747 744 741 738 734 731 728 726 722 718 714 710 707 705 702 699 696 693 691 688 685 682 678 674 670 664 659 656 651 648 644
765 765 765 764 763 761 759 756 754 752 751 749 746 743 739 734 731 728 725 721 718 714 709 706 702 699 696 693 691 689 686 683 680 677 673 668 663 659 653 649 644 640 637
765 764 763 762 760 758 755 752 751 749 747 746 743 740 736 731 727 724 720 715 712 709 705 700 696 693 690 688 686 683 681 678 675 672 668 664 659 653 647 640 636 632 630
763 762 762 759 757 755 752 749 745 743 742 740 738 734 731 726 721 717 715 711 706 703 699 694 691 688 685 683 682 679 676 673 670 667 663 659 654 647 642 633 629 625 622
760 759 758 756 754 752 750 747 745 741 737 735 733 729 725 720 716 712 708 704 699 695 692 689 686 684 682 680 678 675 672 669 665 661 657 652 648 642 635 628 622 619 616
757 756 755 753 752 749 747 745 743 740 736 731 726 722 718 714 710 707 704 700 696 692 689 686 684 681 679 676 673 670 667 663 659 655 651 647 642 637 630 623 617 614 611
753 753 752 750 748 746 744 742 739 737 733 728 724 720 715 712 707 703 700 696 693 689 685 682 679 677 674 670 667 664 661 657 653 650 646 642 637 632 627 620 614 610 607
750 749 749 747 745 743 741 738 736 733 729 725 721 717 714 709 704 700 697 693 689 685 681 677 674 671 667 664 662 659 655 652 648 644 641 637 632 628 623 617 611 608 607
747 746 745 743 741 739 737 735 732 729 726 721 717 713 709 706 701 697 692 688 684 681 677 673 669 665 662 659 656 653 650 646 643 639 636 632 628 624 619 613 608 606 605
743 742 741 739 738 735 733 731 729 726 723 719 714 710 706 702 697 692 687 683 678 674 670 667 662 658 655 652 649 646 643 640 637 635 631 627 623 620 615 610 606 604 602
739 738 736 735 734 732 730 727 725 723 719 716 711 707 703 699 693 688 682 677 672 667 663 659 655 651 647 644 641 638 636 633 631 628 626 623 620 616 611 607 604 603 602
734 734 732 731 730 728 726 723 721 719 716 712 708 704 700 695 689 683 677 671 666 661 655 651 647 642 638 634 632 630 627 626 624 622 620 618 614 611 607 604 602 602 603
730 729 729 727 726 725 723 720 718 715 713 709 705 700 695 690 684 678 671 665 659 654 648 643 638 633 629 626 623 621 620 619 618 616 614 612 609 606 604 602 601 602 603
Wind_Speed
14 15 16 16 16 15 15 15 16 15 14 15 14 14 16 17 14 16 18 18 18 18 18 19 19 19 21 21 22 23 19 23 9 20 23 26 30 28 28 26 27 28 29
14 12 12 11 11 12 13 13 11 10 11 11 12 12 12 13 14 15 17 17 17 17 16 17 18 19 18 19 23 22 21 26 21 15 22 21 25 29 30 30 33 34 34
8 8 9 10 10 11 11 11 12 12 12 12 12 12 12 12 13 13 12 12 13 14 15 15 16 16 15 18 20 20 22 21 21 17 16 14 22 27 28 32 36 36 39
7 8 8 9 10 11 11 11 12 12 12 13 13 13 13 13 11 12 14 15 16 15 14 14 14 14 17 18 17 17 18 20 19 17 16 14 13 19 21 19 24 32 34
6 7 8 9 10 10 11 11 11 12 12 13 13 13 13 13 10 14 15 16 16 17 16 14 15 17 18 14 17 18 18 18 18 16 13 10 6 6 10 16 20 20 24
6 7 8 9 10 10 11 12 13 13 14 15 15 16 17 14 14 15 16 18 18 17 17 17 17 17 15 17 16 15 16 18 18 16 16 13 14 14 17 17 14 7 2
5 6 8 9 10 10 11 12 13 14 15 15 15 16 17 16 16 17 16 16 17 17 17 17 18 16 18 18 18 18 19 16 16 19 19 18 18 17 20 19 19 16 14
5 6 6 8 9 11 12 13 14 15 15 15 15 15 16 16 15 16 15 16 18 18 17 16 16 17 17 16 20 20 20 20 19 21 22 24 24 26 28 27 22 28 22
6 7 8 9 12 13 14 15 14 14 14 14 14 15 15 16 14 13 12 15 15 16 16 14 14 15 16 19 22 22 23 22 22 23 25 26 27 27 27 28 22 17 7
7 8 10 11 12 12 13 13 13 14 15 14 15 14 14 15 13 11 12 14 16 16 15 16 14 13 13 16 19 20 21 23 28 30 30 28 27 26 25 26 24 20 17
4 6 8 10 12 12 13 14 15 15 15 16 16 15 14 13 14 14 15 16 17 18 18 17 16 15 18 21 22 21 23 26 26 25 28 31 27 23 22 24 26 27 23
5 7 9 10 11 13 14 15 15 14 15 15 15 16 15 16 16 18 19 19 19 19 19 18 18 20 23 24 23 22 24 27 24 23 21 22 25 22 22 26 28 32 31
5 6 7 9 11 12 13 14 14 12 12 13 14 16 18 19 21 21 21 20 22 22 21 22 23 24 26 27 24 23 26 22 20 21 22 23 22 27 27 29 31 35 37
5 7 8 9 11 12 11 12 12 12 12 12 14 16 18 20 22 21 21 25 25 24 24 22 23 26 25 23 20 19 20 20 21 21 22 22 25 25 25 26 26 26 25
5 8 9 10 12 12 12 11 12 12 13 16 18 19 20 20 21 26 28 28 28 28 28 23 20 20 18 16 16 17 19 21 20 20 21 25 24 24 27 26 25 25 21
7 8 9 11 12 12 13 14 12 13 15 17 19 19 22 23 26 27 28 29 30 29 27 24 22 20 17 16 16 19 20 21 20 20 21 23 24 23 25 25 24 22 20
8 10 11 12 12 12 12 13 17 17 16 17 18 20 22 25 25 25 26 27 28 27 22 21 20 17 15 16 17 19 22 22 23 20 21 23 25 23 25 23 21 19 19
10 11 12 11 11 13 13 14 16 18 19 19 19 22 22 23 23 25 26 27 24 20 17 16 16 16 14 17 19 20 21 23 19 22 24 22 24 23 24 22 19 17 16
9 10 10 11 13 14 15 14 15 17 18 20 23 22 21 24 25 26 25 21 21 19 19 19 19 19 19 19 20 20 21 22 23 23 23 23 23 22 23 23 19 18 16
9 10 11 12 13 14 14 14 15 17 18 17 19 19 22 23 22 22 23 22 21 21 21 19 19 20 21 21 21 21 21 22 22 21 22 22 23 20 22 24 17 13 12
9 9 10 13 13 14 14 15 16 17 17 18 19 20 24 24 21 21 22 22 22 21 19 20 22 23 21 20 20 21 22 24 23 21 22 22 21 21 23 24 18 13 12
8 10 10 12 14 14 16 16 15 16 17 18 20 21 23 22 21 22 22 22 23 24 23 23 24 24 23 23 23 23 24 24 23 21 21 21 20 21 23 23 17 12 11
9 10 12 13 15 15 15 15 15 16 17 18 20 20 21 21 22 23 23 25 25 25 25 24 25 25 24 24 24 25 25 25 25 25 24 22 20 21 22 23 14 9 7
10 11 12 14 14 14 14 14 15 17 17 18 19 20 22 23 23 25 26 26 27 27 26 25 26 27 29 28 27 27 27 27 26 26 28 25 22 22 22 21 14 11 9
9 12 13 13 13 13 14 13 14 16 17 18 20 22 23 24 25 25 27 27 28 29 30 29 29 30 30 30 30 29 29 26 25 24 23 25 24 24 23 19 12 9 11
10 11 12 12 12 12 13 13 14 15 17 19 22 23 24 25 26 26 28 29 30 30 31 32 31 30 30 29 27 25 23 21 21 20 20 22 23 22 19 12 9 10 14
Wind_Direction
57 59 56 50 56 59 51 38 29 26 24 18 13 9 13 5 3 5 3 358 351 350 348 343 341 346 347 338 333 355 275 229 253 261 248 244 237 231 236 239 237 238 247
36 48 55 51 44 42 43 36 20 16 14 8 6 358 9 2 348 4 355 351 343 342 343 344 337 343 348 341 339 342 344 330 325 254 245 220 224 227 230 234 241 252 259
31 32 35 32 31 27 23 21 12 4 3 357 356 356 353 348 348 352 342 331 325 334 336 338 333 341 347 343 343 340 338 331 332 329 311 260 250 246 244 246 248 253 255
21 23 22 19 13 10 5 4 355 353 348 346 347 344 341 342 339 339 335 333 331 326 325 326 328 335 338 338 341 337 332 326 329 329 319 310 254 247 246 247 253 255 252
5 7 6 358 356 355 354 349 342 342 340 337 333 330 331 330 327 334 333 327 323 320 322 325 327 326 331 333 330 330 333 328 321 316 316 309 279 248 225 239 236 247 244
345 346 346 346 345 343 339 336 334 333 330 328 327 326 324 321 322 327 329 324 320 319 320 323 324 326 328 325 322 320 320 319 318 313 309 307 307 293 272 248 221 184 238
316 324 331 332 330 330 326 324 324 323 323 323 322 320 317 315 315 319 324 322 315 314 317 319 320 322 326 328 327 325 322 316 313 308 304 303 306 305 301 257 223 216 225
297 306 314 318 319 321 322 323 322 323 321 319 315 312 309 307 307 310 314 315 309 306 304 308 311 319 324 340 335 326 322 313 311 308 301 299 299 303 306 299 284 246 241
309 319 324 326 324 325 323 321 318 314 311 308 305 304 302 302 305 302 304 304 300 300 298 301 301 306 313 330 330 326 324 319 313 307 305 302 296 295 292 296 287 258 232
326 324 322 321 319 317 314 311 310 308 306 307 306 306 307 306 314 312 314 316 313 312 312 309 307 307 309 314 316 314 308 310 313 313 308 303 298 293 287 275 282 266 246
303 308 315 319 318 316 315 312 308 306 306 306 310 316 317 318 318 319 317 316 314 316 308 306 305 306 308 309 309 308 304 308 307 300 297 299 297 287 289 283 271 268 268
304 315 318 317 313 311 306 306 308 308 312 314 318 320 322 322 322 320 317 313 311 310 304 300 303 304 306 307 306 306 310 310 303 297 294 298 292 290 291 288 278 273 274
294 302 306 304 300 300 302 304 307 308 308 314 318 318 320 320 319 317 315 314 314 307 298 296 298 304 308 307 305 310 315 311 308 307 302 300 299 301 300 295 287 281 280
291 298 297 293 297 296 295 296 298 303 308 310 312 312 314 313 311 312 317 315 310 305 300 292 294 298 297 292 290 300 305 303 301 300 300 297 303 302 299 292 281 277 270
283 290 291 294 295 295 294 293 294 294 298 304 307 309 307 306 307 307 307 306 302 303 305 304 298 293 295 292 294 297 298 299 298 297 306 302 300 296 296 293 272 265 252
289 290 289 293 293 293 295 301 298 300 303 301 299 299 298 297 304 306 304 304 301 299 298 294 293 290 286 290 297 299 298 295 292 295 302 300 295 290 299 296 273 252 248
274 283 289 294 291 294 299 305 312 314 309 306 302 304 306 305 306 307 305 302 298 294 285 283 283 286 287 292 296 298 299 298 297 293 295 298 297 295 303 296 279 253 246
272 278 285 290 291 295 300 304 306 308 309 305 307 310 312 314 314 313 309 308 305 293 285 290 295 297 296 299 296 295 296 298 294 301 297 299 300 303 306 296 280 256 241
273 279 285 290 289 292 297 297 299 299 299 307 311 316 320 320 317 315 314 310 301 299 301 298 297 297 295 294 293 294 295 296 298 302 299 299 299 303 307 303 287 268 252
271 277 282 287 291 297 299 297 300 299 298 305 308 310 317 313 313 318 316 310 306 302 299 298 298 297 295 293 294 295 296 297 294 293 296 297 297 303 308 306 294 267 260
278 283 284 290 294 295 297 300 296 297 303 305 306 309 313 317 314 311 308 307 305 306 307 304 300 295 294 296 299 300 296 291 290 290 297 295 298 307 307 308 295 281 262
275 280 286 291 294 295 297 295 298 299 304 308 310 310 315 315 308 306 304 302 301 300 298 297 293 292 291 290 288 286 287 287 292 290 294 298 300 302 304 309 295 272 247
272 281 289 288 295 296 299 298 301 307 307 306 306 308 312 310 307 304 301 299 298 296 294 290 289 288 288 287 285 282 281 283 289 292 291 292 298 301 304 304 293 275 206
276 282 285 292 294 294 297 302 305 304 305 306 308 309 307 304 301 299 298 296 293 291 290 288 286 285 286 286 283 282 283 285 287 289 293 298 297 298 298 301 287 268 203
263 280 285 287 290 294 297 302 305 306 305 307 308 307 304 303 301 301 300 297 295 294 294 293 290 289 290 290 289 288 287 282 282 285 285 287 291 294 295 293 273 236 187
264 274 279 282 283 288 294 300 303 305 308 308 306 305 306 305 304 305 304 302 300 299 297 296 296 298 296 295 295 295 287 285 285 282 281 284 287 292 291 279 255 198 180